Location: *
(34.6903°N, 135.5184°E)
Time: 13:45:39
(UTC+00:00)

Cosmos 2242 Rocket - Pass Details

Date: 22 September 2019
Orbit: 617 x 652 km, 82.5° (Epoch: 14 October)

Event Time Altitude Azimuth Distance (km) Brightness Sun altitude
Exits shadow 18:43:08 56° 357° (N) 761 4.0 -25.6°
Drops below altitude 10° 18:46:43 10° 5° (N) 2,028 6.5 -24.9°
Sets 18:48:57 0° 6° (N) 2,935 7.4 -24.5°
